Location: Saluda
(35.2377°N, 82.3468°W)
Time: 05:19:12
(UTC+00:00)

Vanguard 2 - Pass Details

Date: 04 October 2022
Orbit: 553 x 2933 km, 32.9° (Epoch: 04 December)

Event Time Altitude Azimuth Distance (km) Brightness Sun altitude
Rises 15:01:07 0° 189° (S) 3,724 11.4 38.9°
Reaches altitude 10° 15:04:36 10° 168° (SSE) 3,138 11.5 39.4°
Maximum altitude 15:09:22 17° 131° (SE) 3,133 12.1 40.1°
Drops below altitude 10° 15:15:29 10° 97° (E) 4,245 12.0 40.9°
Sets 15:21:28 0° 81° (E) 5,768 12.3 41.7°
